Regional Weather Roundup
Issued by NWS

Home | Current Version | Previous Version | Text Only | Print | Product List | Glossary On
Versions: 1 2 3 4 5 6 7 8 9 10 11 12 13 14 15 16 17 18 19 20 21 22 23 24 25 26 27 28 29 30 31 32 33 34 35 36 37 38 39 40 41 42 43 44 45 46 47 48 49 50
000
ASUS43 KDMX 082206
RWRIA

WEATHER ROUNDUP FOR IOWA
NATIONAL WEATHER SERVICE DES MOINES IA
400 PM CST THU DEC 08 2016

NOTE: "FAIR" INDICATES FEW OR NO CLOUDS BELOW 12,000 FEET WITH NO
SIGNIFICANT WEATHER AND/OR OBSTRUCTIONS TO VISIBILITY.

* - THESE STATIONS ARE NOT NWS STATIONS...THUS NOT UNDER NWS
QUALITY CONTROL.  THEY ALSO DO NOT REPORT WEATHER SUCH
AS PRECIPITATION OR FOG.

IAZ001>003-012>014-020>022-031>034-043>046-082300-
   NORTHWEST IOWA

CITY           SKY/WX    TMP DP  RH WIND       PRES   REMARKS
CARROLL *      CLEAR     23  10  58 NW20      30.54R WCI   8
CHEROKEE *     CLEAR     22   9  57 NW8       30.55R WCI  12
DENISON *      CLEAR     21   9  58 NW18      30.54R WCI   6
LE MARS *      CLEAR     21   9  58 NW15G22   30.59R WCI   8
ORANGE CITY *  CLEAR     19  10  68 NW21G28   30.54R WCI   3
SHELDON *      PTCLDY    18  10  73 NW20      30.52R WCI   1
SIOUX CITY     CLEAR     24   7  48 NW17G25   30.59R WCI  11
SPENCER        PTCLDY    20  10  65 NW25      30.52R WCI   2
STORM LAKE *   CLEAR     21   9  58 NW15G25   30.52R WCI   8
$$

IAZ055>058-069>071-079>083-090>094-082300-
   SOUTHWEST IOWA

CITY           SKY/WX    TMP DP  RH WIND       PRES   REMARKS
ATLANTIC *     CLEAR     23   9  54 NW18      30.57R WCI   9
AUDUBON *      CLEAR     21   9  58 NW13G20   30.54R WCI   9
CLARINDA *     PTCLDY    25  10  54 NW14      30.62R WCI  13
COUNCIL BLFS * CLEAR     23   9  54 NW14      30.59R WCI  11
CRESTON *      PTCLDY    23   9  54 NW17G23   30.55R WCI   9
HARLAN  *      CLEAR     21   9  58 NW15G23   30.60R WCI   8
LAMONI         CLEAR     24  10  55 NW17      30.54R WCI  11
RED OAK *      CLEAR     25  10  54 NW14G21   30.60R WCI  13
SHENANDOAH *   CLEAR     25   9  50 NW10G18   30.62R WCI  15
$$

IAZ047>049-059>061-072>074-084-082300-
   CENTRAL IOWA

CITY           SKY/WX    TMP DP  RH WIND       PRES   REMARKS
AMES           PTCLDY    24  13  62 NW17G24   30.51R WCI  11
ANKENY *       PTCLDY    23  10  58 NW15G25   30.54R WCI  10
BOONE *        MOCLDY    23  10  58 NW16G23   30.49R WCI  10
CHARITON *     CLEAR     23  10  58 NW14      30.52R WCI  11
DES MOINES     PTCLDY    24  10  55 NW18      30.53R WCI  10
GRINNELL*      PTCLDY    22  13  69 NW14      30.49R WCI   9
KNOXVILLE *    PTCLDY    23   9  54 NW14      30.51R WCI  11
MARSHALLTOWN   PTCLDY    23  14  68 NW23      30.47S WCI   7
NEWTON *       MOCLDY    23  12  63 NW17      30.50R WCI   9
PELLA *        PTCLDY    24  12  60 NW13G20   30.53R WCI  12
PERRY *          N/A     24  14  64 NW13G20   30.53S WCI  13
$$

IAZ004>006-015-016-023>025-035-036-082300-
   NORTH CENTRAL IOWA

CITY           SKY/WX    TMP DP  RH WIND       PRES   REMARKS
ALGONA *       MOCLDY    21  12  68 NW16G25   30.48R WCI   7
CLARION *      CLOUDY    23  12  63 NW20      30.48R WCI   8
ESTHERVILLE    PTCLDY    19  11  70 NW23      30.49R WCI   2
FORT DODGE *   CLEAR     23  10  58 NW10G21   30.51R WCI  12
MASON CITY     CLOUDY    20  12  71 NW18      30.47R WCI   5
FOREST CITY *  CLOUDY    21  12  68 NW16G26   30.46R WCI   7
WEBSTER CITY * MIX PCPN  23  12  63 NW20G26   30.48R WCI   8
IOWA FALLS *   CLOUDY    25  15  67 W18       30.48R WCI  11
$$

IAZ007>011-017>019-026>030-037>042-050>054-066-082300-
   NORTHEAST IOWA

CITY           SKY/WX    TMP DP  RH WIND       PRES   REMARKS
CEDAR RAPIDS   CLOUDY    20  15  81 W20       30.46R WCI   4
CHARLES CITY * FLURRIES  19  12  73 NW15G22   30.44R WCI   5
CLINTON *      FLURRIES  22  16  78 NW18      30.43R WCI   7
DECORAH *      CLOUDY    21  16  79 W8G20     30.38R WCI  12
DUBUQUE        CLOUDY    21  14  74 NW16      30.39R WCI   7
MONTICELLO *   CLOUDY    21  14  73 W14G23    30.43R WCI   8
OELWEIN *      CLOUDY    19  14  79 NW17G24   30.43R WCI   4
WATERLOO       CLOUDY    22  14  71 NW12      30.46R WCI  10
$$

IAZ064-065-067-068-078-082300-
   EAST CENTRAL IOWA

CITY           SKY/WX    TMP DP  RH WIND       PRES   REMARKS
DAVENPORT      CLOUDY    21  14  74 W20       30.45R WCI   6
IOWA CITY      FLURRIES  22  13  68 W14G24    30.50R WCI   9
MUSCATINE *    CLOUDY    23  12  63 W16G25    30.50R WCI  10
QUAD CITIES    CLOUDY    22  13  68 W15G23    30.45R WCI   9
$$

IAZ062-063-075>077-085>089-095>099-082300-
   SOUTHEAST IOWA

CITY           SKY/WX    TMP DP  RH WIND       PRES   REMARKS
BURLINGTON     CLOUDY    20  11  68 NW12G23   30.50R WCI   8
FAIRFIELD *    CLOUDY    23  10  58 NW17G23   30.50R WCI   9
FORT MADISON * MOCLDY    21  12  68 NW15G23   30.51R WCI   8
KEOKUK *       MOCLDY    25  12  58 NW14      30.51R WCI  13
OSKALOOSA *    MOCLDY    23  12  64 NW15      30.51R WCI  10
CENTERVILLE *    N/A     23  10  58 W15       30.53R WCI  10
OTTUMWA        CLOUDY    23  10  57 NW17      30.51R WCI   9
WASHINGTON *   CLOUDY    21  14  73 NW17G25   30.51R WCI   7
$$

ABBREVIATIONS USED IN REMARKS
   TC - TEMPERATURES IN CELSIUS
  WCI - WIND CHILL INDEX
   HX - HEAT INDEX
  VSB - VISIBILITY
$$




USA.gov is the U.S. government's official web portal to all federal, state and local government web resources and services.